Miscellaneous Local Product
Issued by NWS Hastings, NE

Home | Current Version | Previous Version | Text Only | Print | Product List | Glossary Off
Versions: 1 2 3 4 5 6 7 8 9 10 11 12 13 14 15 16 17 18 19 20 21 22 23 24 25 26 27 28 29 30 31 32 33 34 35 36 37 38 39 40 41 42 43 44 45 46 47 48 49 50

000
AXUS43 KGID 242302
MISGRI

GID CWA HOURLY WEATHER ROUNDUP
NATIONAL WEATHER SERVICE HASTINGS NE
600 PM CDT TUE MAY 24 2016

NOTE: "FAIR" INDICATES FEW OR NO CLOUDS BELOW 12,000 FEET WITH NO
SIGNIFICANT WEATHER AND/OR OBSTRUCTIONS TO VISIBILITY.

...SOUTH CENTRAL NEBRASKA...

CITY           SKY/WX    TMP DP  RH WIND       PRES   REMARKS
GRAND ISLAND   MOSUNNY   79  60  52 SE8       29.86F
HASTINGS       MOSUNNY   79  59  50 S9        29.86F
KEARNEY        MOSUNNY   79  57  47 S17       29.86S
ORD            SUNNY     81  52  36 SE10      29.83F
YORK           SUNNY     81  59  47 SE9       29.86F
AURORA         SUNNY     81  57  43 S9        29.86F
LEXINGTON      PTSUNNY   75  59  57 SE13      29.85S
HOLDREGE       MOSUNNY   77  56  47 S15       29.86S
HEBRON         MOSUNNY   82  58  44 S9        29.85F

...NEBRASKA PANHANDLE...

CITY           SKY/WX    TMP DP  RH WIND       PRES   REMARKS
CHADRON        MOSUNNY   79  46  31 SE17G24   29.75F
ALLIANCE       CLOUDY    73  48  41 S22G29    29.81F
SCOTTSBLUFF    CLOUDY    73  47  39 SE18      29.79F
SIDNEY         CLOUDY    72  52  49 S16       29.85F

...WESTERN AND NORTH CENTRAL NEBRASKA...

CITY           SKY/WX    TMP DP  RH WIND       PRES   REMARKS
VALENTINE      SUNNY     81  45  28 SE12      29.81F
AINSWORTH      SUNNY     80  47  31 SE12G18   29.83F
ONEILL         SUNNY     83  48  30 SE10      29.85F
BROKEN BOW     SUNNY     80  53  39 SE12      29.84F
IMPERIAL       MOSUNNY   75  59  57 S16       29.82F
NORTH PLATTE   MOSUNNY   75  58  55 SE13      29.83F
MCCOOK         PTSUNNY   75  60  59 SE15G23   29.82F

...EASTERN NEBRASKA...

CITY           SKY/WX    TMP DP  RH WIND       PRES   REMARKS
NORFOLK        SUNNY     83  55  38 SE12      29.83F
SO SIOUX CITY  SUNNY     81  65  58 SE13      29.85F
TEKAMAH        MOSUNNY   82  61  48 SE14      29.85F
COLUMBUS       SUNNY     82  55  39 SE13G20   29.87S
ALBION         SUNNY     80  53  38 S10G18    29.85F
OMAHA EPPLEY   MOSUNNY   82  59  45 S7        29.86F
MILLARD        SUNNY     82  61  49 SE6       29.87F
LINCOLN        SUNNY     81  59  47 S6        29.87F
NEBRASKA CITY  SUNNY     79  61  52 NE6       29.88F
BEATRICE       SUNNY     81  61  51 S6        29.87F
FALLS CITY     SUNNY     83  61  47 SW8       29.86F

...NORTHERN KANSAS...

CITY           SKY/WX    TMP DP  RH WIND       PRES   REMARKS
GOODLAND       MOSUNNY   77  60  55 SE13G22   29.81F
HILL CITY      CLOUDY    75  65  70 SE13      29.80F
NORTON         CLOUDY    75  55  50 E14       29.83F
PHILLIPSBURG   SUNNY     79  63  57 SE8       29.82F
SMITH CENTER   SUNNY     75  63  64 SE16G22   29.84F
BELOIT         SUNNY     81  63  54 SE13      29.83F
HAYS           CLOUDY    79  63  57 E14G21    29.78F
RUSSELL        MOSUNNY   77  66  68 E18       29.80F
CONCORDIA      SUNNY     79  63  57 S13       29.85S
SALINA         SUNNY     82  68  62 SE12      29.83F
TOPEKA         SUNNY     81  65  58 S7        29.86S



USA.gov is the U.S. government's official web portal to all federal, state and local government web resources and services.